Location: Newark
(41.0400°S, 62.7845°W)
Time: 21:22:56
(UTC+00:00)

Courier 1B Rocket - Pass Details

Date: 04 December 2021
Orbit: 920 x 1202 km, 28.2° (Epoch: 19 January)

Event Time Altitude Azimuth Distance (km) Brightness Sun altitude
Rises 17:57:46 0° 283° (WNW) 4,089 8.7 59.2°
Reaches altitude 10° 18:01:05 10° 294° (WNW) 3,138 8.3 58.7°
Maximum altitude 18:07:23 27° 347° (NNW) 2,132 7.5 57.6°
Drops below altitude 10° 18:13:37 10° 41° (NE) 3,102 7.6 56.6°
Sets 18:16:53 0° 52° (NE) 4,033 8.1 56.0°
